FDX5025 VHHH-KONT

Flight info

Callsign FDX5025
Flight time N/A
Altitude 29100
Route BEKOL A461 SHL G471 EGEDA/K0933S0920 G471 PLT/K0935S0890 A599 SHR/K0928S0950 A599 PUD A593 AKARA/K0926F310 A593 LAMEN/N0500F310 A593 SADLI Y590 BEDAR Y591 FUE Y23 OOITA Y40 MYE Y33 LABEL Y121 SWING/N0495F330 Y88 DAIGO Y886 ADNAP OTR5 KALNA DCT KALIG DCT CUTEE/N0484F350 DCT CARTO DCT 50N180E 50N170W 49N160W/N0488F370 48N150W 46N140W 42N130W/N0480F390 DCT VESPA DCT ENI DCT OAK J1 AVE J6 PMD ZIGGY8
Aircraft MD11/H-SDE1E2E3FGHIJ2J3J4J5M1RWXY/LB1D1

Departure

Time 2026-05-06 23:23
Airport Hong Kong International Airport (VHHH)

Arrival

Time N/A
Airport Ontario International Airport (KONT)
Time Latitude Longitude Altitude Speed Heading
2026-05-06 22:52 22.29849 113.92059 39 ft 0 kts 161°
2026-05-06 23:04 22.29851 113.92058 39 ft 2 kts 161°
2026-05-06 23:04 22.29876 113.92051 38 ft 4 kts 173°
2026-05-06 23:04 22.29903 113.92049 37 ft 4 kts 180°
2026-05-06 23:05 22.29918 113.92049 37 ft 1 kts 180°
2026-05-06 23:05 22.29920 113.92049 38 ft 0 kts 180°
2026-05-06 23:09 22.29914 113.92048 38 ft 2 kts 182°
2026-05-06 23:10 22.29911 113.92045 38 ft 0 kts 205°
2026-05-06 23:10 22.29908 113.92042 38 ft 2 kts 217°
2026-05-06 23:10 22.29887 113.92016 39 ft 4 kts 244°
2026-05-06 23:10 22.29898 113.91974 39 ft 9 kts 298°
2026-05-06 23:11 22.29899 113.91913 39 ft 8 kts 252°
2026-05-06 23:11 22.29878 113.91841 39 ft 12 kts 252°
2026-05-06 23:11 22.29869 113.91784 39 ft 3 kts 281°
2026-05-06 23:11 22.29880 113.91762 38 ft 2 kts 313°
2026-05-06 23:12 22.29897 113.91752 39 ft 4 kts 333°
2026-05-06 23:12 22.29928 113.91738 39 ft 6 kts 340°
2026-05-06 23:12 22.29978 113.91719 39 ft 9 kts 340°
2026-05-06 23:12 22.30032 113.91687 39 ft 7 kts 299°
2026-05-06 23:13 22.30026 113.91634 39 ft 8 kts 265°
2026-05-06 23:13 22.30049 113.91592 39 ft 6 kts 327°
2026-05-06 23:13 22.30088 113.91575 39 ft 5 kts 335°
2026-05-06 23:13 22.30134 113.91556 39 ft 9 kts 340°
2026-05-06 23:14 22.30205 113.91529 39 ft 12 kts 341°
2026-05-06 23:14 22.30297 113.91496 39 ft 16 kts 341°
2026-05-06 23:14 22.30403 113.91446 38 ft 16 kts 315°
2026-05-06 23:14 22.30396 113.91361 39 ft 12 kts 246°
2026-05-06 23:15 22.30399 113.91319 37 ft 2 kts 311°
2026-05-06 23:15 22.30421 113.91307 40 ft 5 kts 334°
2026-05-06 23:15 22.30459 113.91291 40 ft 5 kts 347°
2026-05-06 23:15 22.30501 113.91277 40 ft 8 kts 340°
2026-05-06 23:16 22.30575 113.91248 40 ft 15 kts 340°
2026-05-06 23:16 22.30691 113.91205 40 ft 21 kts 340°
2026-05-06 23:16 22.30847 113.91147 40 ft 26 kts 341°
2026-05-06 23:16 22.31025 113.91081 40 ft 27 kts 341°
2026-05-06 23:17 22.31150 113.91035 40 ft 12 kts 341°
2026-05-06 23:17 22.31188 113.91014 40 ft 3 kts 310°
2026-05-06 23:17 22.31192 113.90995 40 ft 2 kts 276°
2026-05-06 23:17 22.31190 113.90975 40 ft 3 kts 260°
2026-05-06 23:18 22.31182 113.90945 40 ft 5 kts 252°
2026-05-06 23:18 22.31167 113.90897 38 ft 9 kts 251°
2026-05-06 23:18 22.31142 113.90817 40 ft 14 kts 250°
2026-05-06 23:18 22.31105 113.90706 39 ft 18 kts 251°
2026-05-06 23:19 22.31061 113.90562 39 ft 23 kts 251°
2026-05-06 23:19 22.31004 113.90389 39 ft 26 kts 250°
2026-05-06 23:19 22.30939 113.90188 40 ft 30 kts 251°
2026-05-06 23:19 22.30869 113.89971 40 ft 30 kts 251°
2026-05-06 23:20 22.30849 113.89843 40 ft 5 kts 296°
2026-05-06 23:20 22.30855 113.89840 37 ft 1 kts 326°
2026-05-06 23:20 22.30860 113.89840 38 ft 2 kts 343°
2026-05-06 23:20 22.30881 113.89834 40 ft 5 kts 344°
2026-05-06 23:21 22.30921 113.89820 40 ft 7 kts 341°
2026-05-06 23:21 22.30960 113.89806 39 ft 4 kts 341°
2026-05-06 23:21 22.30998 113.89792 37 ft 9 kts 341°
2026-05-06 23:21 22.31064 113.89782 37 ft 9 kts 17°
2026-05-06 23:22 22.31101 113.89832 37 ft 8 kts 68°
2026-05-06 23:22 22.31124 113.89901 37 ft 15 kts 71°
2026-05-06 23:22 22.31198 113.90132 38 ft 51 kts 71°
2026-05-06 23:22 22.31353 113.90613 38 ft 85 kts 71°
2026-05-06 23:23 22.31579 113.91318 39 ft 112 kts 71°
2026-05-06 23:23 22.31862 113.92194 38 ft 135 kts 71°
2026-05-06 23:23 22.32217 113.93311 124 ft 173 kts 72°
2026-05-06 23:23 22.32634 113.94569 678 ft 182 kts 72°
2026-05-06 23:24 22.33003 113.95927 1189 ft 194 kts 78°
2026-05-06 23:24 22.33296 113.97347 1955 ft 200 kts 81°
2026-05-06 23:24 22.33581 113.98951 2121 ft 236 kts 82°
2026-05-06 23:24 22.33863 114.00762 2570 ft 253 kts 83°
2026-05-06 23:25 22.34090 114.02684 3185 ft 262 kts 92°
2026-05-06 23:25 22.33803 114.04622 3862 ft 265 kts 108°
2026-05-06 23:25 22.33214 114.06513 4555 ft 270 kts 111°
2026-05-06 23:25 22.32545 114.08418 5262 ft 274 kts 113°
2026-05-06 23:26 22.31843 114.10357 5891 ft 281 kts 114°
2026-05-06 23:26 22.31125 114.12322 6501 ft 287 kts 114°
2026-05-06 23:26 22.30385 114.14341 7094 ft 292 kts 113°
2026-05-06 23:26 22.29109 114.17814 8039 ft 302 kts 113°
2026-05-06 23:27 22.26077 114.26440 10161 ft 326 kts 101°
2026-05-06 23:27 22.31648 114.34210 11155 ft 378 kts 17°
2026-05-06 23:27 22.41963 114.33762 13351 ft 382 kts 329°
2026-05-06 23:27 22.48489 114.25058 15297 ft 384 kts 295°
2026-05-06 23:28 22.53714 114.14848 17105 ft 395 kts 307°
2026-05-06 23:28 22.63198 114.08590 18699 ft 411 kts 334°
2026-05-06 23:28 22.73683 114.03409 20135 ft 418 kts 332°
2026-05-06 23:28 22.84269 113.97936 21500 ft 426 kts 332°
2026-05-06 23:29 22.95049 113.92333 22936 ft 434 kts 332°
2026-05-06 23:29 23.05886 113.86689 24255 ft 442 kts 332°
2026-05-06 23:29 23.17536 113.82116 25545 ft 455 kts 349°
2026-05-06 23:29 23.30314 113.83368 26760 ft 474 kts 15°
2026-05-06 23:30 23.41662 113.91058 27892 ft 495 kts 43°
2026-05-06 23:30 23.49412 114.03697 28944 ft 510 kts 59°
2026-05-06 23:30 23.56737 114.17228 28997 ft 527 kts 58°
2026-05-06 23:31 23.75133 114.41427 28990 ft 519 kts 31°
2026-05-06 23:31 23.98296 114.60161 28993 ft 523 kts 34°
2026-05-06 23:32 24.21444 114.79499 28995 ft 525 kts 34°
2026-05-06 23:32 24.33972 114.87134 28987 ft 512 kts
2026-05-06 23:32 24.47962 114.89864 28992 ft 512 kts
2026-05-06 23:32 24.61927 114.93257 29483 ft 512 kts
2026-05-06 23:33 24.75814 114.96740 29952 ft 513 kts
2026-05-06 23:33 25.08902 115.04856 29942 ft 512 kts
2026-05-06 23:33 25.36641 115.10744 29823 ft 498 kts 356°
2026-05-06 23:34 25.61070 115.01349 29829 ft 473 kts 316°
2026-05-06 23:34 25.84911 114.88654 29695 ft 496 kts 349°
2026-05-06 23:34 26.12127 114.94411 29890 ft 520 kts 25°
2026-05-06 23:34 26.28585 115.11582 30049 ft 536 kts 60°
2026-05-06 23:35 26.35097 115.26546 30987 ft 531 kts 54°
2026-05-06 23:35 26.43709 115.39817 31746 ft 529 kts 52°
2026-05-06 23:35 26.51908 115.53452 32460 ft 528 kts 54°
2026-05-06 23:35 26.59985 115.67106 32979 ft 525 kts 53°
2026-05-06 23:36 26.68047 115.80723 32936 ft 526 kts 53°
2026-05-06 23:36 26.84033 116.07907 32986 ft 528 kts 53°
2026-05-06 23:37 27.02282 116.33331 32961 ft 523 kts 41°
2026-05-06 23:37 27.22092 116.57293 32958 ft 524 kts 41°
2026-05-06 23:38 27.42250 116.80777 32993 ft 520 kts 41°
2026-05-06 23:38 27.62376 117.04193 32927 ft 520 kts 40°
2026-05-06 23:39 27.82381 117.27392 32948 ft 519 kts 40°
2026-05-06 23:39 28.02509 117.50866 32986 ft 520 kts 40°
2026-05-06 23:40 28.22644 117.74530 32997 ft 522 kts 40°
2026-05-06 23:40 28.42774 117.98320 32931 ft 523 kts 41°
2026-05-06 23:41 28.62427 118.22534 32960 ft 525 kts 42°
2026-05-06 23:41 28.82186 118.46993 32979 ft 525 kts 42°
2026-05-06 23:42 29.02035 118.71732 32947 ft 529 kts 43°
2026-05-06 23:42 29.21754 118.96469 32965 ft 530 kts 43°
2026-05-06 23:43 29.41592 119.21511 32994 ft 532 kts 44°
2026-05-06 23:43 29.61490 119.46847 32996 ft 534 kts 44°
2026-05-06 23:44 29.82644 119.70570 32984 ft 525 kts 23°
2026-05-06 23:44 30.07965 119.87103 32944 ft 527 kts 25°
2026-05-06 23:45 30.33196 120.04280 32939 ft 527 kts 25°
2026-05-06 23:45 30.58454 120.21594 32926 ft 527 kts 25°
2026-05-06 23:46 30.83495 120.39121 32930 ft 528 kts 32°
2026-05-06 23:46 30.92524 120.52685 32933 ft 543 kts 67°
2026-05-06 23:46 30.96395 120.69760 32933 ft 546 kts 75°
2026-05-06 23:47 31.04572 121.03546 32931 ft 545 kts 73°
2026-05-06 23:47 31.12864 121.37490 32937 ft 546 kts 79°